Lone Rock, WI

4:49 AM CDT on June 29, 2017 (GMT -0500)
Tri-County Regional

Weather History for KLNR - October, 2014

Change the Weather History Date:

Thursday, October 23, 2014

  Actual Average Record
Temperature  
Mean Temperature 48 °F -  
Max Temperature 53 °F 55 °F 72 °F (2004)
Min Temperature 44 °F 36 °F 26 °F (2011)
Degree Days  
Heating Degree Days 16    
Moisture  
Dew Point 44 °F    
Average Humidity 79    
Maximum Humidity 86    
Minimum Humidity 61    
Precipitation  
Precipitation 0.42 in - - ()
Sea Level Pressure  
Sea Level Pressure 30.08 in    
Wind  
Wind Speed 5 mph (ESE)    
Max Wind Speed 10 mph    
Max Gust Speed -    
Visibility 4 miles    
Events Fog , Rain    
Averages and records for this station are not official NWS values.
T = Trace of Precipitation, MM = Missing Value Source: NWS Daily Summary

Daily Weather History Graph

Daily Weather History Graph

Search for Another Location

Airport or City:

Trip Planner

Search our weather history database for the weather conditions in past years. The results will help you decide how hot, cold, wet, or windy it might be!

Date:

Astronomy

Oct. 23, 2014 Rise Set
Actual Time 7:24 AM CDT 6:05 PM CDT
Civil Twilight 6:55 AM CDT 6:34 PM CDT
Nautical Twilight 6:21 AM CDT 7:07 PM CDT
Astronomical Twilight 5:48 AM CDT 7:40 PM CDT
Moon 7:03 AM CDT (10/23) 6:06 PM CDT (10/23)
Length of Visible Light 11h 39m
Length of Day
10h 40m
Waning Crescent, 0% of the Moon is Illuminated
Oct 23
Waning Crescent
Oct 23
New
Oct 30
First Quarter
Nov 6
Full
Nov 14
Last Quarter

Hourly Weather History & Observations

Time (CDT) Temp. Windchill Dew Point Humidity Pressure Visibility Wind Dir Wind Speed Gust Speed Precip Events Conditions
12:56 AM 45.0 °F 40.1 °F 35.1 °F 68% 30.17 in 10.0 mi East 9.2 mph - N/A   Clear
1:56 AM 45.0 °F 40.6 °F 35.1 °F 68% 30.17 in 10.0 mi East 8.1 mph - N/A   Clear
2:56 AM 45.0 °F 41.2 °F 35.1 °F 68% 30.16 in 10.0 mi East 6.9 mph - N/A   Clear
3:56 AM 44.1 °F 40.1 °F 35.1 °F 71% 30.16 in 10.0 mi ESE 6.9 mph - N/A   Clear
4:56 AM 46.0 °F 41.9 °F 36.0 °F 68% 30.15 in 10.0 mi East 8.1 mph - N/A   Overcast
5:56 AM 46.9 °F - 36.0 °F 66% 30.14 in 10.0 mi East 10.4 mph - N/A   Overcast
6:56 AM 48.0 °F - 37.0 °F 66% 30.13 in 10.0 mi East 6.9 mph - N/A   Overcast
7:56 AM 48.9 °F - 37.0 °F 64% 30.12 in 10.0 mi East 9.2 mph - N/A   Overcast
8:56 AM 50.0 °F - 37.0 °F 61% 30.12 in 10.0 mi ESE 8.1 mph - N/A   Overcast
9:56 AM 48.0 °F - 39.9 °F 74% 30.12 in 2.5 mi East 4.6 mph - 0.05 in Rain Heavy Rain
10:09 AM 48.0 °F - 41.0 °F 77% 30.13 in 3.0 mi ESE 4.6 mph - 0.02 in Rain Rain
10:16 AM 48.9 °F - 41.0 °F 74% 30.12 in 2.5 mi East 6.9 mph - 0.04 in Rain Rain
10:25 AM 48.9 °F - 41.0 °F 74% 30.12 in 4.0 mi ENE 5.8 mph - 0.04 in Rain Light Rain
10:46 AM 48.9 °F - 41.0 °F 74% 30.11 in 5.0 mi East 8.1 mph - 0.05 in Rain Light Rain
10:56 AM 48.9 °F - 42.1 °F 77% 30.11 in 6.0 mi East 8.1 mph - 0.05 in Rain Light Rain
11:56 AM 50.0 °F - 44.1 °F 80% 30.10 in 3.0 mi ESE 5.8 mph - 0.08 in Rain Rain
12:35 PM 50.0 °F - 44.1 °F 80% 30.08 in 2.5 mi ESE 3.5 mph - 0.07 in Rain Rain
12:56 PM 50.0 °F - 45.0 °F 83% 30.08 in 2.5 mi Calm Calm - 0.13 in Rain Rain
1:03 PM 50.0 °F - 45.0 °F 83% 30.08 in 3.0 mi ESE 4.6 mph - 0.02 in Rain Rain
1:10 PM 50.0 °F - 45.0 °F 83% 30.07 in 2.5 mi ESE 4.6 mph - 0.03 in Rain Rain
1:33 PM 50.0 °F - 45.0 °F 83% 30.07 in 3.0 mi Calm Calm - 0.09 in Rain Rain
1:40 PM 50.0 °F - 45.0 °F 83% 30.07 in 2.0 mi West 3.5 mph - 0.10 in Rain Rain
1:53 PM 51.8 °F - 44.6 °F 76% 30.06 in 4.0 mi Calm Calm - 0.11 in Rain Light Rain
1:56 PM 51.1 °F - 45.0 °F 80% 30.06 in 4.0 mi Calm Calm - 0.11 in Rain Light Rain
2:04 PM 51.1 °F - 46.0 °F 83% 30.06 in 6.0 mi Calm Calm - 0.00 in Rain Light Rain
2:22 PM 52.0 °F - 45.0 °F 77% 30.05 in 10.0 mi South 3.5 mph - 0.00 in   Overcast
2:56 PM 52.0 °F - 46.0 °F 80% 30.04 in 10.0 mi Calm Calm - 0.00 in   Overcast
3:56 PM 53.1 °F - 46.9 °F 80% 30.03 in 5.0 mi SSE 3.5 mph - N/A   Haze
4:19 PM 53.1 °F - 46.9 °F 80% 30.03 in 4.0 mi Calm Calm - N/A   Haze
4:41 PM 53.1 °F - 46.9 °F 80% 30.04 in 2.5 mi Calm Calm - N/A   Haze
4:51 PM 53.6 °F - 46.4 °F 77% 30.04 in 1.2 mi Calm Calm - N/A   Haze
4:56 PM 53.1 °F - 46.9 °F 80% 30.04 in 1.0 mi Calm Calm - N/A   Haze
5:23 PM 52.0 °F - 46.9 °F 83% 30.04 in 2.0 mi Calm Calm - N/A   Haze
5:46 PM 53.1 °F - 48.0 °F 83% 30.04 in 3.0 mi Calm Calm - N/A   Haze
5:56 PM 53.1 °F - 48.0 °F 83% 30.03 in 4.0 mi Calm Calm - N/A   Haze
6:56 PM 53.1 °F - 46.9 °F 80% 30.04 in 4.0 mi Calm Calm - N/A   Haze
7:56 PM 53.1 °F - 48.0 °F 83% 30.05 in 4.0 mi Calm Calm - N/A   Haze
8:26 PM 53.1 °F - 48.0 °F 83% 30.06 in 3.0 mi Calm Calm - N/A   Haze
8:51 PM 51.8 °F - 46.4 °F 82% 30.06 in 2.5 mi Calm Calm - N/A   Haze
8:56 PM 52.0 °F - 48.0 °F 86% 30.05 in 2.0 mi Calm Calm - N/A   Overcast
9:05 PM 52.0 °F - 48.0 °F 86% 30.06 in 1.2 mi Calm Calm - N/A   Overcast
9:23 PM 52.0 °F - 48.0 °F 86% 30.05 in 0.5 mi Calm Calm - N/A Fog Fog
9:39 PM 52.0 °F - 48.0 °F 86% 30.05 in 0.2 mi Calm Calm - N/A Fog Fog
9:56 PM 52.0 °F - 48.0 °F 86% 30.04 in 0.2 mi Calm Calm - N/A Fog Fog
10:37 PM 52.0 °F - 48.0 °F 86% 30.05 in 0.5 mi Calm Calm - N/A Fog Fog
10:56 PM 52.0 °F - 48.0 °F 86% 30.04 in 1.0 mi WNW 3.5 mph - N/A   Overcast
11:24 PM 52.0 °F - 48.0 °F 86% 30.05 in 1.2 mi Calm Calm - N/A   Overcast
11:45 PM 52.0 °F - 48.0 °F 86% 30.04 in 0.8 mi Calm Calm - N/A   Overcast
11:56 PM 52.0 °F - 48.0 °F 86% 30.04 in 0.8 mi Calm Calm - N/A   Overcast